EW4986 Weather Reports


time (UTC)temp
C
wind
direction
speed
KPH
gust
KPH
rain 1hr
cm
rain 24hr
cm
rain mn
cm
humidity
%
barometer
mb
20260508043920 14 163 0.0 1.6 0.00 0.00 0.00 27 1016.8
20260508043914 14 163 0.0 0.0 0.00 0.00 0.00 28 1016.8
20260508042913 15 163 0.0 1.6 0.00 0.00 0.00 25 1016.8
20260508042415 15 163 0.0 0.0 0.00 0.00 0.00 26 1016.7
20260508041914 15 163 0.0 1.6 0.00 0.00 0.00 25 1016.7
20260508041415 15 163 0.0 3.2 0.00 0.00 0.00 24 1016.7
20260508040915 15 172 0.0 3.2 0.00 0.00 0.00 23 1016.7
20260508040415 15 148 0.0 0.0 0.00 0.00 0.00 24 1016.7
20260508035919 15 148 0.0 1.6 0.00 0.00 0.00 22 1016.7
20260508035913 15 148 0.0 1.6 0.00 0.00 0.00 23 1016.6
20260508034916 16 203 0.0 0.0 0.00 0.00 0.00 23 1016.6
20260508034415 16 203 0.0 0.0 0.00 0.00 0.00 22 1016.6
20260508033913 16 204 0.0 0.0 0.00 0.00 0.00 22 1016.5
20260508033414 16 205 0.0 0.0 0.00 0.00 0.00 22 1016.3
20260508032915 16 205 0.0 0.0 0.00 0.00 0.00 22 1016.2
20260508032415 15 205 0.0 1.6 0.00 0.00 0.00 24 1016.2
20260508031914 15 216 0.0 1.6 0.00 0.00 0.00 25 1016.0
20260508031414 16 239 0.0 0.0 0.00 0.00 0.00 26 1016.0
20260508030916 16 239 0.0 0.0 0.00 0.00 0.00 23 1015.9
20260508030414 17 239 0.0 0.0 0.00 0.00 0.00 23 1015.8
20260508025915 17 239 0.0 1.6 0.00 0.00 0.00 20 1015.6
20260508025414 17 239 0.0 1.6 0.00 0.00 0.00 20 1015.6
20260508024917 18 237 0.0 1.6 0.00 0.00 0.00 19 1015.5
20260508024911 18 237 0.0 0.0 0.00 0.00 0.00 20 1015.5
20260508023912 18 237 0.0 1.6 0.00 0.00 0.00 19 1015.5
20260508023412 18 237 0.0 1.6 0.00 0.00 0.00 18 1015.4
20260508022913 18 169 0.0 1.6 0.00 0.00 0.00 19 1015.4
20260508022412 18 169 0.0 1.6 0.00 0.00 0.00 18 1015.3
20260508021915 19 169 0.0 3.2 0.00 0.00 0.00 18 1015.1
20260508021909 18 169 0.0 0.0 0.00 0.00 0.00 18 1015.2
20260508020907 20 169 0.0 3.2 0.00 0.00 0.00 16 1015.1
20260508020408 20 153 0.0 3.2 0.00 0.00 0.00 15 1014.8
20260508015908 20 141 0.0 6.4 0.00 0.00 0.00 15 1014.9
20260508015414 21 195 1.6 6.4 0.00 0.00 0.00 15 1014.8
20260508014907 21 186 1.6 8.0 0.00 0.00 0.00 15 1014.8
20260508014409 21 179 3.2 9.7 0.00 0.00 0.00 14 1014.8
20260508013906 22 153 1.6 9.7 0.00 0.00 0.00 14 1014.7
20260508013405 22 210 1.6 8.0 0.00 0.00 0.00 14 1014.7
20260508012906 22 172 1.6 8.0 0.00 0.00 0.00 14 1014.7
20260508012405 22 200 1.6 6.4 0.00 0.00 0.00 15 1014.6
20260508011908 23 195 3.2 11.3 0.00 0.00 0.00 14 1014.5
20260508011903 23 146 3.2 8.0 0.00 0.00 0.00 13 1014.6
20260508010904 23 200 4.8 11.3 0.00 0.00 0.00 14 1014.5
20260508010405 23 198 4.8 11.3 0.00 0.00 0.00 13 1014.5
20260508005906 24 181 3.2 8.0 0.00 0.00 0.00 13 1014.6
20260508005404 24 164 1.6 6.4 0.00 0.00 0.00 14 1014.5
20260508004904 24 219 1.6 4.8 0.00 0.00 0.00 14 1014.5
20260508004410 23 141 4.8 11.3 0.00 0.00 0.00 13 1014.5
20260508004405 24 153 3.2 11.3 0.00 0.00 0.00 14 1014.5
20260508003407 23 160 3.2 9.7 0.00 0.00 0.00 14 1014.6
20260508003401 23 143 3.2 11.3 0.00 0.00 0.00 13 1014.5
20260508002407 24 159 3.2 8.0 0.00 0.00 0.00 13 1014.6
20260508002402 23 143 3.2 8.0 0.00 0.00 0.00 13 1014.6
20260508001400 23 202 3.2 8.0 0.00 0.00 0.00 13 1014.6
20260508000902 23 152 4.8 9.7 0.00 0.00 0.00 12 1014.7
20260508000359 23 160 3.2 9.7 0.00 0.00 0.00 12 1014.6
20260507235859 23 193 1.6 6.4 0.00 0.00 0.00 13 1014.6
20260507235358 23 226 3.2 9.7 0.00 0.00 0.00 13 1014.7
20260507234857 23 143 3.2 9.7 0.00 0.00 0.00 12 1014.7
20260507234359 24 134 3.2 9.7 0.00 0.00 0.00 12 1014.8
20260507233858 25 136 1.6 6.4 0.00 0.00 0.00 13 1014.8
20260507233854 25 158 0.0 6.4 0.00 0.00 0.00 12 1014.9
20260507232852 25 278 1.6 4.8 0.00 0.00 0.00 12 1014.9
20260507232351 24 297 1.6 6.4 0.00 0.00 0.00 12 1014.9
20260507231850 24 157 3.2 9.7 0.00 0.00 0.00 12 1015.1
20260507231350 24 119 3.2 9.7 0.00 0.00 0.00 12 1015.1
20260507230851 24 96 3.2 8.0 0.00 0.00 0.00 12 1015.1
20260507230348 24 155 1.6 9.7 0.00 0.00 0.00 12 1015.2
20260507225849 24 146 3.2 9.7 0.00 0.00 0.00 12 1015.2
20260507225349 23 205 1.6 6.4 0.00 0.00 0.00 12 1015.4
20260507224848 23 59 1.6 4.8 0.00 0.00 0.00 13 1015.3
20260507224347 24 75 3.2 9.7 0.00 0.00 0.00 12 1015.5
20260507223849 24 169 3.2 9.7 0.00 0.00 0.00 12 1015.5
20260507223349 24 143 1.6 8.0 0.00 0.00 0.00 12 1015.5
20260507222847 25 122 1.6 8.0 0.00 0.00 0.00 11 1015.5
20260507222345 25 148 1.6 8.0 0.00 0.00 0.00 12 1015.8
20260507221847 24 306 1.6 8.0 0.00 0.00 0.00 13 1015.8
20260507221345 24 102 1.6 8.0 0.00 0.00 0.00 13 1015.9
20260507220853 24 141 1.6 4.8 0.00 0.00 0.00 13 1016.1
20260507220847 23 113 1.6 6.4 0.00 0.00 0.00 14 1016.0
20260507220344 23 296 1.6 6.4 0.00 0.00 0.00 15 1016.0
20260507220003 24 234 1.6 3.2 0.00 0.00 0.00 14 1016.2
20260507215508 24 255 1.6 3.2 0.00 0.00 0.00 14 1016.3
20260507214346 23 224 3.2 9.7 0.00 0.00 0.00 13 1016.5
20260507213847 23 167 3.2 9.7 0.00 0.00 0.00 15 1016.6
20260507213345 23 328 1.6 6.4 0.00 0.00 0.00 15 1016.7
20260507212846 23 297 1.6 4.8 0.00 0.00 0.00 15 1016.8
20260507212349 23 87 1.6 6.4 0.00 0.00 0.00 15 1017.0
20260507212343 23 135 1.6 6.4 0.00 0.00 0.00 15 1016.9
20260507211344 23 103 1.6 3.2 0.00 0.00 0.00 15 1017.3
20260507210843 23 288 1.6 8.0 0.00 0.00 0.00 16 1017.4
20260507210345 22 264 3.2 8.0 0.00 0.00 0.00 17 1017.4
20260507205852 22 275 3.2 11.3 0.00 0.00 0.00 17 1017.7
20260507205844 23 203 3.2 9.7 0.00 0.00 0.00 16 1017.5
20260507205345 22 220 3.2 11.3 0.00 0.00 0.00 17 1017.6
20260507204341 23 129 1.6 8.0 0.00 0.00 0.00 17 1017.9
20260507203842 22 131 1.6 6.4 0.00 0.00 0.00 17 1018.0
20260507203341 22 98 1.6 6.4 0.00 0.00 0.00 18 1018.0
20260507202848 22 160 3.2 9.7 0.00 0.00 0.00 17 1018.2
20260507202841 22 347 3.2 9.7 0.00 0.00 0.00 17 1018.1
20260507202502 21 127 1.6 6.4 0.00 0.00 0.00 19 1018.3
20260507201348 22 282 3.2 8.0 0.00 0.00 0.00 18 1018.4
20260507201343 21 148 1.6 8.0 0.00 0.00 0.00 18 1018.3
20260507200341 22 195 3.2 9.7 0.00 0.00 0.00 18 1018.4
20260507195842 22 137 1.6 9.7 0.00 0.00 0.00 17 1018.6
20260507195341 22 212 1.6 6.4 0.00 0.00 0.00 17 1018.6
20260507194841 21 148 1.6 4.8 0.00 0.00 0.00 19 1018.7
20260507194341 20 86 1.6 6.4 0.00 0.00 0.00 18 1018.8
20260507193841 20 312 1.6 12.9 0.00 0.00 0.00 18 1018.9
20260507193346 19 68 3.2 9.7 0.00 0.00 0.00 19 1019.0
20260507193341 20 319 1.6 12.9 0.00 0.00 0.00 20 1018.9
20260507192349 20 92 3.2 9.7 0.00 0.00 0.00 18 1019.3
20260507192344 20 56 4.8 9.7 0.00 0.00 0.00 19 1019.1
20260507191340 20 34 1.6 9.7 0.00 0.00 0.00 19 1019.5
20260507190841 20 153 3.2 6.4 0.00 0.00 0.00 19 1019.5
20260507190341 20 139 3.2 6.4 0.00 0.00 0.00 19 1019.6
20260507185843 20 169 1.6 6.4 0.00 0.00 0.00 19 1019.7
20260507185343 20 229 1.6 4.8 0.00 0.00 0.00 19 1019.7
20260507184843 20 219 1.6 4.8 0.00 0.00 0.00 21 1019.8
20260507184343 18 247 3.2 11.3 0.00 0.00 0.00 22 1020.0
20260507183841 18 290 3.2 11.3 0.00 0.00 0.00 22 1020.1
20260507183347 18 300 1.6 9.7 0.00 0.00 0.00 25 1020.3
20260507183342 18 78 1.6 8.0 0.00 0.00 0.00 23 1020.2
20260507182338 17 39 4.8 9.7 0.00 0.00 0.00 25 1020.4
20260507181839 17 314 3.2 8.0 0.00 0.00 0.00 25 1020.4
20260507181340 17 56 3.2 9.7 0.00 0.00 0.00 25 1020.5
20260507180840 17 260 4.8 12.9 0.00 0.00 0.00 24 1020.5
20260507180340 17 44 4.8 12.9 0.00 0.00 0.00 26 1020.7
20260507175839 17 70 3.2 14.5 0.00 0.00 0.00 26 1020.8
20260507175339 17 342 3.2 14.5 0.00 0.00 0.00 27 1020.9
20260507174844 17 196 3.2 8.0 0.00 0.00 0.00 29 1020.9
20260507174840 17 273 1.6 6.4 0.00 0.00 0.00 29 1020.9
20260507173847 16 37 3.2 8.0 0.00 0.00 0.00 25 1021.0
20260507173841 16 304 3.2 8.0 0.00 0.00 0.00 29 1020.9
20260507172839 16 322 3.2 8.0 0.00 0.00 0.00 25 1021.1
20260507172339 16 80 1.6 9.7 0.00 0.00 0.00 30 1021.1
20260507171839 16 340 3.2 9.7 0.00 0.00 0.00 31 1021.2
20260507171339 16 320 3.2 8.0 0.00 0.00 0.00 31 1021.4
20260507170840 16 312 1.6 8.0 0.00 0.00 0.00 32 1021.5
20260507170346 15 311 1.6 8.0 0.00 0.00 0.00 34 1021.6
20260507170340 15 306 1.6 8.0 0.00 0.00 0.00 31 1021.6
20260507165837 15 335 1.6 6.4 0.00 0.00 0.00 31 1021.7
20260507164838 15 69 3.2 8.0 0.00 0.00 0.00 36 1021.6
20260507164346 15 314 3.2 9.7 0.00 0.00 0.00 37 1021.7
20260507164339 14 321 3.2 9.7 0.00 0.00 0.00 37 1021.7
20260507163339 15 330 1.6 6.4 0.00 0.00 0.00 38 1021.7
20260507162837 14 290 1.6 6.4 0.00 0.00 0.00 38 1021.8
20260507162338 13 13 3.2 6.4 0.00 0.00 0.00 39 1021.8
20260507161842 12 312 3.2 9.7 0.00 0.00 0.00 42 1022.1
20260507161836 13 321 3.2 8.0 0.00 0.00 0.00 40 1021.9
20260507160841 12 304 3.2 11.3 0.00 0.00 0.00 44 1022.1
20260507160834 12 316 3.2 11.3 0.00 0.00 0.00 42 1022.1
20260507155835 12 304 1.6 6.4 0.00 0.00 0.00 46 1022.1
20260507155334 12 345 3.2 8.0 0.00 0.00 0.00 47 1022.1
20260507154837 12 315 3.2 8.0 0.00 0.00 0.00 47 1022.2
20260507154340 11 71 3.2 9.7 0.00 0.00 0.00 50 1022.3
20260507154335 12 341 3.2 8.0 0.00 0.00 0.00 48 1022.2
20260507153334 11 331 3.2 9.7 0.00 0.00 0.00 50 1022.4
20260507152834 11 72 3.2 9.7 0.00 0.00 0.00 51 1022.4
20260507152334 11 90 3.2 9.7 0.00 0.00 0.00 52 1022.4
20260507151833 11 9 3.2 9.7 0.00 0.00 0.00 52 1022.4
20260507151332 11 295 3.2 11.3 0.00 0.00 0.00 54 1022.4
20260507150833 10 310 4.8 12.9 0.00 0.00 0.00 55 1022.4
20260507150827 10 355 3.2 12.9 0.00 0.00 0.00 56 1022.5
20260507145828 10 352 3.2 11.3 0.00 0.00 0.00 57 1022.6
20260507145328 10 324 3.2 9.7 0.00 0.00 0.00 57 1022.6
20260507144833 9 53 3.2 11.3 0.00 0.00 0.00 58 1022.6
20260507144827 9 84 4.8 11.3 0.00 0.00 0.00 58 1022.6
20260507143827 9 65 3.2 11.3 0.00 0.00 0.00 59 1022.8
20260507143325 9 74 3.2 11.3 0.00 0.00 0.00 61 1022.8
20260507142826 8 318 3.2 9.7 0.00 0.00 0.00 62 1022.9
20260507142326 8 22 3.2 9.7 0.00 0.00 0.00 62 1022.8
20260507141825 8 9 4.8 9.7 0.00 0.00 0.00 63 1022.9
20260507141331 7 347 4.8 11.3 0.00 0.00 0.00 65 1022.8
20260507141326 7 331 4.8 11.3 0.00 0.00 0.00 65 1022.8
20260507140325 7 30 3.2 9.7 0.00 0.00 0.00 66 1022.8
20260507135825 7 333 3.2 9.7 0.00 0.00 0.00 66 1022.9
20260507135326 7 330 3.2 9.7 0.00 0.00 0.00 67 1022.8
20260507134833 6 37 4.8 16.1 0.00 0.00 0.00 68 1022.9
20260507134826 7 48 4.8 16.1 0.00 0.00 0.00 68 1022.9
20260507133826 6 48 3.2 14.5 0.00 0.00 0.00 68 1022.8
20260507133336 6 46 3.2 11.3 0.00 0.00 0.00 70 1022.6
20260507133324 6 15 3.2 9.7 0.00 0.00 0.00 70 1022.8
20260507132826 6 70 3.2 9.7 0.00 0.00 0.00 70 1022.9
20260507132327 6 329 3.2 11.3 0.00 0.00 0.00 71 1022.8
20260507131325 6 84 3.2 12.9 0.00 0.00 0.00 71 1022.6
20260507130831 5 327 3.2 16.1 0.00 0.00 0.00 71 1022.6
20260507130826 6 41 3.2 16.1 0.00 0.00 0.00 71 1022.6
20260507125825 5 6 3.2 14.5 0.00 0.00 0.00 71 1022.5
20260507125326 5 51 4.8 16.1 0.00 0.00 0.00 72 1022.5
20260507124824 5 22 4.8 16.1 0.00 0.00 0.00 72 1022.4
20260507124326 5 342 3.2 11.3 0.00 0.00 0.00 72 1022.4
20260507123824 5 312 3.2 11.3 0.00 0.00 0.00 73 1022.4
20260507123324 5 30 3.2 11.3 0.00 0.00 0.00 74 1022.4
20260507122824 4 12 3.2 11.3 0.00 0.00 0.00 74 1022.3
20260507122324 5 2 3.2 11.3 0.00 0.00 0.00 73 1022.2
20260507121825 5 356 3.2 11.3 0.00 0.00 0.00 73 1022.2
20260507121325 5 34 3.2 8.0 0.00 0.00 0.00 73 1022.2
20260507120826 5 342 3.2 8.0 0.00 0.00 0.00 73 1022.2
20260507120324 4 313 1.6 9.7 0.00 0.00 0.00 73 1022.3
20260507115824 4 19 1.6 9.7 0.00 0.00 0.00 72 1022.3
20260507115324 4 333 1.6 8.0 0.00 0.00 0.00 71 1022.3
20260507114824 4 12 1.6 6.4 0.00 0.00 0.00 71 1022.2
20260507114324 5 326 1.6 9.7 0.00 0.00 0.00 70 1022.2
20260507113827 5 72 3.2 11.3 0.00 0.00 0.00 69 1022.1
20260507113823 5 322 3.2 11.3 0.00 0.00 0.00 69 1022.2
20260507112822 5 295 3.2 11.3 0.00 0.00 0.00 69 1022.1
20260507112320 5 11 1.6 11.3 0.00 0.00 0.00 69 1022.1
20260507111822 5 38 1.6 8.0 0.00 0.00 0.00 68 1022.2
20260507111320 5 338 1.6 8.0 0.00 0.00 0.00 68 1022.2
20260507110819 5 319 1.6 6.4 0.00 0.00 0.00 67 1022.1
20260507110318 5 25 1.6 6.4 0.00 0.00 0.00 66 1022.2
20260507105818 5 349 1.6 8.0 0.00 0.00 0.00 65 1022.3
20260507105318 5 348 3.2 11.3 0.00 0.00 0.00 65 1022.2
20260507104819 5 345 3.2 11.3 0.00 0.00 0.00 65 1022.2
20260507104316 5 310 3.2 9.7 0.00 0.00 0.00 64 1022.2
20260507103817 5 24 1.6 6.4 0.00 0.00 0.00 64 1022.2
20260507103316 5 323 1.6 6.4 0.00 0.00 0.00 64 1022.3
20260507102822 5 41 1.6 4.8 0.00 0.00 0.00 65 1022.2
20260507102816 5 84 0.0 4.8 0.00 0.00 0.00 65 1022.3
20260507101817 6 316 0.0 4.8 0.00 0.00 0.00 65 1022.1
20260507101322 6 328 1.6 6.4 0.00 0.00 0.00 64 1022.1
20260507101317 6 339 0.0 6.4 0.00 0.00 0.00 64 1022.2
20260507100319 6 27 1.6 6.4 0.00 0.00 0.00 63 1022.1
20260507095815 6 47 1.6 6.4 0.00 0.00 0.00 61 1021.9
20260507095319 6 346 1.6 8.0 0.00 0.00 0.00 59 1021.9
20260507095314 6 42 1.6 8.0 0.00 0.00 0.00 59 1021.9
20260507094315 6 321 1.6 9.7 0.00 0.00 0.00 56 1021.9
20260507093816 6 328 1.6 9.7 0.00 0.00 0.00 54 1021.9
20260507093315 6 356 1.6 6.4 0.00 0.00 0.00 48 1021.9
20260507092814 6 335 1.6 6.4 0.00 0.00 0.00 46 1021.9
20260507092315 7 347 1.6 6.4 0.00 0.00 0.00 44 1021.9
20260507091814 7 11 3.2 6.4 0.00 0.00 0.00 43 1021.9
20260507091312 7 18 3.2 8.0 0.00 0.00 0.00 41 1021.9
20260507090814 7 300 1.6 8.0 0.00 0.00 0.00 40 1021.9
20260507090315 7 309 1.6 8.0 0.00 0.00 0.00 39 1021.9
20260507085811 7 315 1.6 8.0 0.00 0.00 0.00 39 1021.8
20260507085310 7 301 0.0 3.2 0.00 0.00 0.00 40 1021.7
20260507084810 7 267 0.0 1.6 0.00 0.00 0.00 40 1021.7
20260507084309 7 158 0.0 0.0 0.00 0.00 0.00 40 1021.6
20260507083806 7 158 0.0 0.0 0.00 0.00 0.00 42 1021.7
20260507083308 7 158 0.0 1.6 0.00 0.00 0.00 40 1021.6
20260507082809 7 157 0.0 1.6 0.00 0.00 0.00 40 1021.6
20260507082309 7 155 0.0 0.0 0.00 0.00 0.00 42 1021.6
20260507081808 7 155 0.0 1.6 0.00 0.00 0.00 42 1021.6
20260507081309 7 155 0.0 1.6 0.00 0.00 0.00 40 1021.4
20260507080807 7 77 0.0 0.0 0.00 0.00 0.00 40 1021.2
20260507080306 7 77 0.0 0.0 0.00 0.00 0.00 41 1021.2
20260507075806 8 77 0.0 3.2 0.00 0.00 0.00 40 1021.4
20260507075313 8 78 0.0 4.8 0.00 0.00 0.00 39 1021.4
20260507075307 8 77 0.0 4.8 0.00 0.00 0.00 38 1021.4
20260507074310 8 139 0.0 1.6 0.00 0.00 0.00 39 1021.4
20260507074306 8 76 0.0 3.2 0.00 0.00 0.00 39 1021.2
20260507073925 8 139 0.0 4.8 0.00 0.00 0.00 37 1021.1
20260507073305 8 139 0.0 1.6 0.00 0.00 0.00 38 1021.2
20260507072805 8 139 0.0 1.6 0.00 0.00 0.00 38 1021.2
20260507071806 8 139 0.0 4.8 0.00 0.00 0.00 36 1021.1
20260507071305 9 307 0.0 4.8 0.00 0.00 0.00 35 1021.1
20260507070806 9 307 1.6 4.8 0.00 0.00 0.00 34 1021.0
20260507070311 10 316 3.2 9.7 0.00 0.00 0.00 34 1020.8
20260507070304 10 319 3.2 9.7 0.00 0.00 0.00 34 1020.9
20260507065306 10 306 3.2 9.7 0.00 0.00 0.00 34 1020.7
20260507064809 10 315 0.0 4.8 0.00 0.00 0.00 37 1020.7
20260507064804 10 302 1.6 6.4 0.00 0.00 0.00 35 1020.8
20260507063805 10 308 0.0 4.8 0.00 0.00 0.00 37 1020.8
20260507063306 10 350 0.0 1.6 0.00 0.00 0.00 38 1020.9
20260507062805 10 350 0.0 3.2 0.00 0.00 0.00 38 1020.9
20260507062305 10 314 0.0 3.2 0.00 0.00 0.00 38 1020.9
20260507061802 10 331 0.0 3.2 0.00 0.00 0.00 38 1020.8
20260507061304 10 312 0.0 3.2 0.00 0.00 0.00 39 1020.8
20260507060800 10 248 0.0 1.6 0.00 0.00 0.00 41 1020.8
20260507060300 10 248 0.0 1.6 0.00 0.00 0.00 40 1020.8
20260507055801 10 248 0.0 1.6 0.00 0.00 0.00 40 1020.7
20260507055305 11 297 0.0 1.6 0.00 0.00 0.00 39 1020.7
20260507054801 11 297 0.0 6.4 0.00 0.00 0.00 38 1020.5
20260507054301 11 297 0.0 6.4 0.00 0.00 0.00 39 1020.5
20260507053806 11 327 1.6 6.4 0.00 0.00 0.00 39 1020.5
20260507053801 11 335 0.0 4.8 0.00 0.00 0.00 40 1020.5
20260507053302 11 341 1.6 6.4 0.00 0.00 0.00 39 1020.5
20260507052300 11 324 1.6 8.0 0.00 0.00 0.00 40 1020.4
20260507051800 12 331 1.6 8.0 0.00 0.00 0.00 40 1020.4
20260507051300 11 330 0.0 4.8 0.00 0.00 0.00 42 1020.3
20260507050805 12 328 0.0 3.2 0.00 0.00 0.00 45 1020.2
20260507050759 12 340 0.0 1.6 0.00 0.00 0.00 44 1020.3
20260507045805 12 304 0.0 3.2 0.00 0.00 0.00 44 1020.1
20260507045759 12 314 0.0 3.2 0.00 0.00 0.00 45 1020.2
20260507044759 12 316 0.0 3.2 0.00 0.00 0.00 44 1020.1